Location: Leo
(52.0556°N, 112.3605°W)
Time: 09:19:42
(UTC+00:00)

FO-29 - Pass Details

Date: 02 December 2023
Orbit: 799 x 1322 km, 98.6° (Epoch: 01 March)

Event Time Altitude Azimuth Distance (km) Brightness Sun altitude
Rises 08:26:23 0° 25° (NNE) 4,106 13.3 -57.2°
Reaches altitude 10° 08:30:40 10° 49° (NE) 3,227 12.5 -56.8°
Enters shadow 08:30:43 10° 50° (NE) 3,220 12.5 -56.8°
